一网星座-0499星 (ONEWEB-0499 )

导读

ONEWEB-0499是英国OneWeb星座下的一颗低轨通信卫星,于2022年10月22日发射入轨。作为OneWeb一期组网卫星之一,它运行在约1200公里高度的近地轨道,采用“弯管式”转发设计,依托全球地面关口站实现信号传输,为全球尤其是北极等偏远区域提供低延迟高速卫星互联网接入,助力填补地面网络覆盖盲区,推动全球互联互通。卫星寿命结束后会自动离轨,符合空间碎片管控规范。

Basic Information
目录编号:
54117
目录名称:
ONEWEB-0499
国际标识:
2022-138E
轨道中心:
EARTH
卫星名称:
一网星座-0499星
卫星全名:
一网星座-0499星 (ONEWEB-0499 )
卫星状态:
在轨 (已飞行1421 天)
发射日期:
2022-10-22 UTC
国别 :
英国 (GB)
星等 :
--
This satellite is enrolled in the Space Conjunction Data Service (SCDS) and the current flight risk assessment level is: No High Risk
Orbit Information
数据来源 国际轨道数据 AOE轨道数据
星历时间 2026-09-12T03:01:01+0800
11小时前
查看轨道信息
2026-09-10T22:00:00+0800
1天前
查看轨道信息
半长轴 7563.9km 7563.893km
偏心率 0.00021 0.0002017
轨道倾角 87.912° 87.911°
近地点辐角 88.263° 92.183°
升交点赤经 287.719° 287.960°
平近点角 271.875° 287.084°
近地点 1184.174km 1184.23km
远地点 1187.352km 1187.282km
周期 109.113分钟 109.113分钟
每日圈数 13.197272 13.197289
Detailed Information
平衡模式:
三轴稳定
覆盖范围:
全球
运营商:
一网卫星公司
运营商所在国:
英国
制造商(研发单位):
一网卫星公司
制造商所在国:
英国
使用方式:
暂无
Satellite Introduction
OneWeb卫星网络由648颗重约125公斤的微型卫星组成,运行在1200公里的轨道上。 每颗卫星都能够提供至少每秒8千兆位的吞吐量,以使用其高吞吐量的Ku频段有效载荷为家庭和移动平台提供互联网接入。该卫星仍在工作。
2D Orbit Map
3D Orbit Map
Orbit Altitude Analysis Chart
Orbit Inclination Analysis Chart
Orbit Comprehensive Analysis Chart
View Comprehensive Chart
Conjunction Data List
Event ID Objects TCA Miss Dist (km) Collision Risk Probability Collision Risk Index (CRI) Action
CDM_260914-104201-913605-411722
2026-09-14T
10:42:57+0000
2.933 km
极远距离
1.36143E-6 低风险 0.38
Miss Distance Evolution Trend with All Objects
Collision Probability Evolution Trend with All Objects